Погода Чимбай

Погода Чимбай : погода сейчас, прогноз погоды и архив. Всё, что Вы хотите узнать о погоде Чимбай!

Хотите узнать прогноз погоды Чимбай? Тогда Вам сюда: Погода Чимбай

Поиск расширенной информации на нашем сайте:

Другие новости

Новости СМИ2

Главная страница сайта

Новости сайта

03.07.2017

Напоминаем, что на нашем специализированном сайте Метеоцентр.Азия вы можете получить высокодетализированные автоматические прогнозы погоды по пунктам России, СНГ и мира в авиационном формате (включающие направление и скорость ветра, видимость, явления погоды, количество и форму облачности, нижнюю и верхнюю границу облачности).

Рекомендуем: Классификация и виды складского немеханического оборудования.

Погода Чимбай - сегодня

Время (UTC), дата Ветер
(°,м/с) 
Видим.   Явления Облачность Т
(°С)
Тd
(°С)
f(%) Тe
(°С)
Pmin
(гПа)
dP
(гПа)
Po
(мм)
O2
(г/м3)
Тmin Tmax R s Состояние
почвы
18 19.08.17 340 (С) н/о    ясно 
+22.3 +10.2 46 +24  1017.3  1.4  757  280    +32.9       
21 19.08.17 010 (С) н/о    ясно 
+21.1 +7.6 42 +21  1018.1  0.7  758  282           
00 20.08.17 360 (С) н/о    ясно 
+18.1 +4.1 39 +19  1018.6  0.5  758  286           
03 20.08.17 020 (С) 20000 м    ясно 
+18.4 +5 41 +19  1018.8  0.2  758  285           
06 20.08.17 020 (С) 20000 м    ясно 
+27.3 +8.9 31 +27  1019  0.5  759  276  +16.6         
09 20.08.17 030 (СВ) 20000 м    ясно 
+31.6 +5.8 20 +32  1018.8  759  273           
12 20.08.17 320 (СЗ) 20000 м    ясно 
+32 +2.7 16 +32  1017.9  -1  758  273           
15 20.08.17 350 (С) 20000 м    ясно 
+25.4 +11.8 43 +29  1017.6  -0.6  757  277    +32.6       
18 20.08.17 030 (СВ) н/о    ясно 
+19.7 +9.2 51 +21  1018  0.3  758  283    +32.6       
21 20.08.17 тихо ()   н/о    ясно 
+18.2 +5.5 43 +18  1018.5  0.5  758  286           
00 21.08.17 330 (СЗ) н/о    ясно 
+14.9 +5.9 55 +16  1018.1  -0.5  758  289           
03 21.08.17 360 (С) 20000 м    ясно 
+16.5 +3.2 41 +18  1018.1  0.1  758  287  +14.3        сухая 
06 21.08.17 020 (С) 20000 м    ясно 
+26.3 +9.2 34 +26  1017.3  -0.7  757  277  +14.3         
09 21.08.17 020 (С) 20000 м    ясно 
+31.8 +4.5 18 +32  1015.6  -1.5  756  272           
12 21.08.17 030 (СВ) 20000 м    3/0 верхняя 
[Ci sp]
+32.3 +6.5 20 +32  1013.4  -2.1  755  271           
15 21.08.17 360 (С) 20000 м    3/0 верхняя 
[Ci sp]
+27.6 +8.1 29 +28  1013.3  -0.2  754  275    +33.6       
18 21.08.17 030 (СВ) н/о    ясно 
+22 +8.9 43 +22  1013.2  -0.3  754  280    +33.6       
21 21.08.17 030 (СВ) н/о    ясно 
+18.4 +6.5 46 +19  1013.4  0.1  754  284           
00 22.08.17 060 (СВ) н/о    ясно 
+18.2 +6.2 45 +20  1013.8  0.5  755  284           
03 22.08.17 тихо ()   20000 м    10/0 средняя 
[Ac lent]
+18.5 +9.7 56 +19  1014.4  0.5  755  283           
06 22.08.17 060 (СВ) 20000 м    4/0 верхняя 
[Ci sp]
+28.8 +9.3 30 +29  1015.5  1.4  756  274  +16.4         
09 22.08.17 060 (СВ) 20000 м    ясно 
+31.4 +5.3 19 +31  1014.8  -0.7  755  272           
12 22.08.17 230 (ЮЗ) 20000 м    ясно 
+30.7 +3.6 18 +31  1013.8  -1  755  273           
15 22.08.17 030 (СВ) 20000 м    ясно 
+25.2 +7.4 32 +25  1014  755  277    +32.2       
18 22.08.17 340 (С) н/о    ясно 
+20.1 +6.1 40 +20  1014.8  0.7  755  282    +32.2       
Время (UTC), дата Ветер
(°,м/с) 
Видим.   Явления Облачность Т
(°С)
Тd
(°С)
f(%) Тe
(°С)
Pmin
(гПа)
dP
(гПа)
Po
(мм)
O2
(г/м3)
Тmin Tmax R s Состояние
почвы

Для получения пояснительной информации подведите курсор к названию столбца.

ПОГОДА Чимбай - архив

Всё, что Вы хотите узнать о погоде Чимбай - удобно и подробно!

Выберите нужную дату (начиная с 1 января 2015* года) и нажмите кнопку "Найти".
Будут отображены архивные сводки погоды по пункту Чимбай, начиная с указанной даты.


Отображать данные в формате CSV (для использования в таблицах Excel)


Внимание! Наш архив погоды предназначен исключительно для личного некоммерческого использования в познавательных целях. Если Вам необходимы официальные справки о состоянии погоды (для производственных, юридических, коммерческих и т.п. целей), обращайтесь в органы Росгидромета.

*Примечание: данная дата относится к архиву по метеостанциям СССР (Россия, СНГ, Балтия).
Архив по метеостанциям Зарубежной Европы и Азии (кроме Китая) хранится 10 дней, по другим регионам земного шара (Китай, Африка, Америка, Австралия, Океания) - 1 день.

Чимбай - район местоположения метеостанции


Название, широта, долгота, высота метеостанции:
Чимбай 42.9°ш. 59.8°д. 66 м над ур. моря [Узбекистан]

Дополнительная информация

В oтличие oт бoльшинства пoгoдных сайтoв мы публикуем пoдрoбную метеoинфoрмацию в детальнoм прoфессиoнальнoм фoрмате.

Характеристики температуры и влажнoсти вoздуха измеряются на высoте 2 м в тени вдали oт зданий и деревьев.
Скoрoсть ветра измеряется на высoте 10 м (на урoвне рoста челoвека скoрoсть ветра ниже в 1.5-2 раза). Если метеoстанция нахoдится в гoрoде или в лесу, тo скoрoсть ветра занижена на 2-4 м/с пo сравнению с oткрытым местoм. Скoрoсть ветра над акватoриями крупных рек и oзёр, а также на вершинах хoлмoв на 2-5 м/с выше, чем в oбычных услoвиях.
Атмoсфернoе давление в разных тoчках местнoсти мoжет значительнo oтличаться oт давления на метеoстанции, в зависимoсти oт услoвий рельефа (при пoдъёме на 10 м давление пoнижается примернo на 1 мм рт.ст.).